Location: Medlow Airstrip Trail, Medlow Bath NSW 2780, Australia
(33.6682°S, 150.3233°E)
Time: 14:01:27
(UTC+10:00)

Transit 2A Rocket - All Passes

Search period start: 20 September 2019 00:00
Search period end: 30 September 2019 00:00
Orbit: 592 x 911 km, 66.7° (Epoch: 19 September)

Date Brightness Start Highest point End Pass type
(mag) Time Alt. Az. Time Alt. Az. Time Alt. Az.
20 Sep - 00:12:33 10° NW 00:17:14 61° WSW 00:22:28 10° SSE night (unlit)
20 Sep - 08:59:23 10° SSW 09:05:15 47° ESE 09:11:05 10° NE daylight
20 Sep - 10:42:45 10° SW 10:47:35 25° WNW 10:52:20 10° NNW daylight
20 Sep - 23:30:03 10° NNW 23:34:44 71° ENE 23:39:57 10° SSE night (unlit)
21 Sep - 01:15:25 10° WSW 01:18:00 14° SW 01:20:42 10° SSW visible
21 Sep - 08:17:19 10° S 08:22:31 29° SE 08:27:43 10° ENE daylight
21 Sep - 09:59:32 10° SW 10:05:16 43° WNW 10:10:56 10° N daylight
21 Sep - 22:48:05 10° N 22:52:23 36° ENE 22:57:05 10° SE night (unlit)
22 Sep - 00:31:09 10° WNW 00:35:04 23° SW 00:39:18 10° S night (unlit)
22 Sep - 07:35:36 10° S 07:39:38 18° SE 07:43:40 10° E daylight
22 Sep - 09:16:45 10° SSW 09:22:52 75° WNW 09:28:54 10° NNE daylight
22 Sep - 22:06:54 10° NNE 22:10:10 19° ENE 22:13:39 10° ESE night (unlit)
22 Sep - 23:47:45 10° NW 23:52:17 41° WSW 23:57:18 10° SSE night (unlit)
23 Sep - 06:55:06 10° SSE 06:56:36 11° SE 06:58:06 10° ESE daylight
23 Sep - 08:34:15 10° SSW 08:40:20 66° ESE 08:46:21 10° NE daylight
23 Sep - 10:18:39 10° WSW 10:22:22 17° WNW 10:26:03 10° NW daylight
23 Sep - 23:04:55 10° NNW 23:09:40 76° WSW 23:14:59 10° SSE night (unlit)
24 Sep - 07:51:59 10° S 07:57:41 39° ESE 08:03:20 10° NE daylight
24 Sep - 09:34:55 10° SW 09:40:08 30° WNW 09:45:17 10° NNW daylight
24 Sep - 22:22:35 10° N 22:27:13 56° ENE 22:32:21 10° SE night (unlit)
25 Sep - 00:07:04 10° W 00:10:18 17° SW 00:13:42 10° S night (unlit)
25 Sep - 07:10:00 10° S 07:14:54 24° SE 07:19:45 10° ENE daylight
25 Sep - 08:51:53 10° SW 08:57:48 52° WNW 09:03:37 10° N daylight
25 Sep - 21:40:51 10° NNE 21:44:55 29° ENE 21:49:21 10° SE night (unlit)
25 Sep - 23:23:11 10° WNW 23:27:24 28° SW 23:32:01 10° S night (unlit)
26 Sep - 06:28:30 10° SSE 06:31:57 15° SE 06:35:24 10° E daylight
26 Sep - 08:09:12 10° SSW 08:15:22 88° WNW 08:21:25 10° NNE daylight
26 Sep - 09:55:50 10° W 09:57:07 11° W 09:58:24 10° WNW daylight
26 Sep - 21:00:04 10° NE 21:02:45 15° ENE 21:05:33 10° ESE night (unlit)
26 Sep - 22:40:00 10° NW 22:44:41 50° WSW 22:49:53 10° SSE night (unlit)
27 Sep - 07:26:46 10° SSW 07:32:47 55° ESE 07:38:42 10° NE daylight
27 Sep - 09:10:36 10° WSW 09:14:58 21° WNW 09:19:15 10° NNW daylight
27 Sep - 21:57:19 10° NNW 22:02:07 86° ENE 22:07:28 10° SSE night (unlit)
27 Sep - 23:43:36 10° WSW 23:45:35 12° SW 23:47:37 10° SSW visible
28 Sep - 06:44:36 10° S 06:50:05 33° SE 06:55:31 10° ENE daylight
28 Sep - 08:27:11 10° SW 08:32:43 36° WNW 08:38:07 10° N daylight
28 Sep - 21:15:11 10° N 21:19:43 45° ENE 21:24:44 10° SE night (unlit)
28 Sep - 22:58:54 10° W 23:02:35 20° SW 23:06:33 10° S night (unlit)
29 Sep - 06:02:44 10° S 06:07:15 21° SE 06:11:43 10° E daylight
29 Sep - 07:44:16 10° SSW 07:50:19 63° WNW 07:56:15 10° NNE daylight
29 Sep - 20:33:41 10° NNE 20:37:28 23° ENE 20:41:32 10° SE night (unlit)
29 Sep - 22:15:17 10° WNW 22:19:46 34° SW 22:24:41 10° S night (unlit)
